Location: Makakahi
(40.6833°S, 175.6000°E)
Time: 23:13:04
(UTC+00:00)

FENGYUN 1C DEB - Pass Details

Date: 07 December 2024
Orbit: 841 x 907 km, 98.9° (Epoch: 11 January)

Event Time Altitude Azimuth Distance (km) Brightness Sun altitude
Rises 09:49:59 0° 172° (S) 3,512 ? -18.8°
Reaches altitude 10° 09:52:29 10° 177° (S) 2,556 ? -19.1°
Maximum altitude 09:57:54 49° 250° (WSW) 1,119 ? -19.7°
Drops below altitude 10° 10:03:12 10° 323° (NW) 2,487 ? -20.2°
Enters shadow 10:04:06 - 325° (NW) 2,826 ? -20.3°
